| time (UTC) | temp F | wind direction | speed MPH | gust MPH | rain 1hr in | rain 24hr in | rain mn in | humidity % | barometer mb |
| 20260505173032 | 74 | 0 | 0.0 | 0.0 | 0.00 | 0.01 | 0.01 | 52 | 1004.4 |
| 20260505172517 | 74 | 0 | 0.0 | 0.0 | 0.00 | 0.01 | 0.01 | 54 | 1004.5 |
| 20260505172022 | 74 | 0 | 0.0 | 0.0 | 0.00 | 0.01 | 0.01 | 53 | 1004.3 |
| 20260505171532 | 74 | 0 | 0.0 | 0.0 | 0.00 | 0.01 | 0.01 | 51 | 1004.3 |
| 20260505171021 | 74 | 0 | 0.0 | 0.0 | 0.00 | 0.01 | 0.01 | 51 | 1004.4 |
| 20260505170518 | 75 | 0 | 0.0 | 0.0 | 0.00 | 0.01 | 0.01 | 53 | 1004.3 |
| 20260505170038 | 75 | 0 | 0.0 | 0.0 | 0.00 | 0.01 | 0.01 | 50 | 1004.0 |
| 20260505165518 | 75 | 0 | 0.0 | 0.0 | 0.00 | 0.01 | 0.01 | 52 | 1004.1 |
| 20260505165021 | 76 | 0 | 0.0 | 0.0 | 0.00 | 0.01 | 0.01 | 53 | 1004.0 |
| 20260505164535 | 76 | 0 | 0.0 | 0.0 | 0.00 | 0.01 | 0.01 | 52 | 1003.9 |
| 20260505164018 | 76 | 0 | 0.0 | 0.0 | 0.00 | 0.01 | 0.01 | 54 | 1003.9 |
| 20260505163518 | 76 | 0 | 0.0 | 0.0 | 0.00 | 0.01 | 0.01 | 53 | 1004.0 |
| 20260505163032 | 77 | 0 | 0.0 | 0.0 | 0.00 | 0.01 | 0.01 | 52 | 1004.0 |
| 20260505162525 | 77 | 0 | 0.0 | 0.0 | 0.00 | 0.01 | 0.01 | 52 | 1003.9 |
| 20260505162018 | 77 | 0 | 0.0 | 0.0 | 0.00 | 0.01 | 0.01 | 49 | 1003.9 |
| 20260505161610 | 77 | 0 | 0.0 | 0.0 | 0.00 | 0.01 | 0.01 | 51 | 1004.1 |
| 20260505161018 | 76 | 0 | 0.0 | 0.0 | 0.00 | 0.01 | 0.01 | 55 | 1004.2 |
| 20260505160521 | 76 | 0 | 0.0 | 0.0 | 0.00 | 0.01 | 0.01 | 53 | 1004.2 |
| 20260505153035 | 76 | 0 | 0.0 | 0.0 | 0.00 | 0.01 | 0.01 | 57 | 1004.4 |
| 20260505152518 | 76 | 0 | 0.0 | 0.0 | 0.00 | 0.01 | 0.01 | 54 | 1004.5 |
| 20260505152021 | 75 | 0 | 0.0 | 0.0 | 0.00 | 0.01 | 0.01 | 56 | 1004.7 |
| 20260505151534 | 75 | 0 | 0.0 | 0.0 | 0.00 | 0.01 | 0.01 | 55 | 1004.5 |
| 20260505151018 | 75 | 0 | 0.0 | 0.0 | 0.00 | 0.01 | 0.01 | 57 | 1004.4 |
| 20260505150518 | 74 | 0 | 0.0 | 0.0 | 0.00 | 0.01 | 0.01 | 54 | 1004.4 |
| 20260505140519 | 73 | 0 | 0.0 | 0.0 | 0.00 | 0.01 | 0.01 | 61 | 1004.4 |
| 20260505125018 | 67 | 0 | 0.0 | 0.0 | 0.00 | 0.01 | 0.01 | 67 | 1005.1 |
| 20260505124535 | 66 | 0 | 0.0 | 0.0 | 0.00 | 0.01 | 0.01 | 69 | 1005.0 |
| 20260505124018 | 65 | 0 | 0.0 | 0.0 | 0.00 | 0.01 | 0.01 | 68 | 1005.2 |
| 20260505123517 | 65 | 0 | 0.0 | 0.0 | 0.00 | 0.01 | 0.01 | 68 | 1005.3 |
| 20260505123034 | 65 | 0 | 0.0 | 0.0 | 0.00 | 0.01 | 0.01 | 72 | 1005.3 |
| 20260505122518 | 64 | 0 | 0.0 | 0.0 | 0.00 | 0.01 | 0.01 | 70 | 1005.2 |
| 20260505122021 | 63 | 0 | 0.0 | 0.0 | 0.00 | 0.01 | 0.01 | 70 | 1005.2 |
| 20260505121537 | 63 | 0 | 0.0 | 0.0 | 0.00 | 0.01 | 0.01 | 72 | 1005.2 |
| 20260505121018 | 63 | 0 | 0.0 | 0.0 | 0.00 | 0.01 | 0.01 | 70 | 1005.3 |
| 20260505120521 | 63 | 0 | 0.0 | 0.0 | 0.00 | 0.01 | 0.01 | 72 | 1005.3 |
| 20260505120039 | 63 | 0 | 0.0 | 0.0 | 0.00 | 0.01 | 0.01 | 71 | 1005.4 |
| 20260505115517 | 63 | 0 | 0.0 | 0.0 | 0.00 | 0.01 | 0.01 | 72 | 1005.3 |
| 20260505115014 | 63 | 0 | 0.0 | 0.0 | 0.00 | 0.01 | 0.01 | 73 | 1005.2 |
| 20260505114530 | 62 | 0 | 0.0 | 0.0 | 0.01 | 0.01 | 0.01 | 72 | 1005.1 |
| 20260505114018 | 62 | 0 | 0.0 | 0.0 | 0.01 | 0.01 | 0.01 | 74 | 1005.1 |
| 20260505113517 | 61 | 0 | 0.0 | 0.0 | 0.01 | 0.01 | 0.01 | 74 | 1005.1 |
| 20260505113036 | 61 | 0 | 0.0 | 0.0 | 0.01 | 0.01 | 0.01 | 75 | 1004.9 |
| 20260505112518 | 61 | 0 | 0.0 | 0.0 | 0.01 | 0.01 | 0.01 | 75 | 1004.9 |
| 20260505112021 | 61 | 0 | 0.0 | 0.0 | 0.01 | 0.01 | 0.01 | 74 | 1004.8 |
| 20260505111534 | 61 | 0 | 0.0 | 0.0 | 0.01 | 0.01 | 0.01 | 74 | 1004.9 |
| 20260505111020 | 60 | 0 | 0.0 | 0.0 | 0.01 | 0.01 | 0.01 | 74 | 1004.9 |
| 20260505110520 | 59 | 0 | 0.0 | 0.0 | 0.01 | 0.01 | 0.01 | 75 | 1004.8 |
| 20260505102018 | 57 | 0 | 0.0 | 0.0 | 0.00 | 0.00 | 0.00 | 77 | 1004.8 |
| 20260505101537 | 57 | 0 | 0.0 | 0.0 | 0.00 | 0.00 | 0.00 | 76 | 1004.8 |
| 20260505101018 | 57 | 0 | 0.0 | 0.0 | 0.00 | 0.00 | 0.00 | 77 | 1004.5 |
| 20260505100518 | 57 | 0 | 0.0 | 0.0 | 0.00 | 0.00 | 0.00 | 77 | 1004.7 |
| 20260505100036 | 57 | 0 | 0.0 | 0.0 | 0.00 | 0.00 | 0.00 | 77 | 1004.5 |
| 20260505095518 | 57 | 0 | 0.0 | 0.0 | 0.00 | 0.00 | 0.00 | 77 | 1004.6 |
| 20260505095017 | 57 | 0 | 0.0 | 0.0 | 0.00 | 0.00 | 0.00 | 78 | 1004.4 |
| 20260505094532 | 57 | 0 | 0.0 | 0.0 | 0.00 | 0.00 | 0.00 | 78 | 1004.6 |
| 20260505094018 | 57 | 0 | 0.0 | 0.0 | 0.00 | 0.00 | 0.00 | 79 | 1004.7 |
| 20260505093518 | 57 | 0 | 0.0 | 0.0 | 0.00 | 0.00 | 0.00 | 79 | 1004.7 |
| 20260505093033 | 57 | 0 | 0.0 | 0.0 | 0.00 | 0.00 | 0.00 | 80 | 1004.9 |
| 20260505092517 | 57 | 0 | 0.0 | 0.0 | 0.00 | 0.00 | 0.00 | 81 | 1004.8 |
| 20260505092018 | 57 | 0 | 0.0 | 0.0 | 0.00 | 0.00 | 0.00 | 82 | 1004.9 |
| 20260505091534 | 56 | 0 | 0.0 | 0.0 | 0.00 | 0.00 | 0.00 | 82 | 1004.9 |
| 20260505091018 | 56 | 0 | 0.0 | 0.0 | 0.00 | 0.00 | 0.00 | 82 | 1004.9 |
| 20260505090518 | 56 | 0 | 0.0 | 0.0 | 0.00 | 0.00 | 0.00 | 81 | 1005.0 |
| 20260505090042 | 56 | 0 | 0.0 | 0.0 | 0.00 | 0.00 | 0.00 | 81 | 1005.1 |
| 20260505085517 | 56 | 0 | 0.0 | 0.0 | 0.00 | 0.00 | 0.00 | 78 | 1005.2 |
| 20260505085017 | 57 | 0 | 0.0 | 0.0 | 0.00 | 0.00 | 0.00 | 78 | 1005.4 |
| 20260505084546 | 57 | 0 | 0.0 | 0.0 | 0.00 | 0.00 | 0.00 | 76 | 1005.4 |
| 20260505084018 | 57 | 0 | 0.0 | 0.0 | 0.00 | 0.00 | 0.00 | 73 | 1005.5 |
| 20260505083521 | 57 | 0 | 0.0 | 0.0 | 0.00 | 0.00 | 0.00 | 73 | 1005.3 |
| 20260505083034 | 57 | 0 | 0.0 | 0.0 | 0.00 | 0.00 | 0.00 | 72 | 1005.3 |
| 20260505082518 | 57 | 0 | 0.0 | 0.0 | 0.00 | 0.00 | 0.00 | 73 | 1005.2 |
| 20260505082018 | 57 | 0 | 0.0 | 0.0 | 0.00 | 0.00 | 0.00 | 73 | 1004.9 |
| 20260505081531 | 58 | 0 | 0.0 | 0.0 | 0.00 | 0.00 | 0.00 | 74 | 1004.8 |
| 20260505081022 | 58 | 0 | 0.0 | 0.0 | 0.00 | 0.00 | 0.00 | 73 | 1004.8 |
| 20260505080518 | 58 | 0 | 0.0 | 0.0 | 0.00 | 0.00 | 0.00 | 74 | 1004.8 |
| 20260505080041 | 58 | 0 | 0.0 | 0.0 | 0.00 | 0.00 | 0.00 | 75 | 1004.6 |
| 20260505075517 | 58 | 0 | 0.0 | 0.0 | 0.00 | 0.00 | 0.00 | 75 | 1004.8 |
| 20260505075017 | 59 | 0 | 0.0 | 0.0 | 0.00 | 0.00 | 0.00 | 74 | 1005.0 |
| 20260505074529 | 59 | 0 | 0.0 | 0.0 | 0.00 | 0.00 | 0.00 | 75 | 1004.9 |
| 20260505074017 | 59 | 0 | 0.0 | 0.0 | 0.00 | 0.00 | 0.00 | 76 | 1005.2 |
| 20260505073517 | 59 | 0 | 0.0 | 0.0 | 0.00 | 0.00 | 0.00 | 76 | 1005.2 |
| 20260505073036 | 60 | 0 | 0.0 | 0.0 | 0.00 | 0.00 | 0.00 | 76 | 1005.1 |
| 20260505072517 | 60 | 0 | 0.0 | 0.0 | 0.00 | 0.00 | 0.00 | 76 | 1005.3 |
| 20260505072018 | 61 | 0 | 0.0 | 0.0 | 0.00 | 0.00 | 0.00 | 75 | 1005.1 |
| 20260505071544 | 61 | 0 | 0.0 | 0.0 | 0.00 | 0.00 | 0.00 | 73 | 1005.1 |
| 20260505071018 | 61 | 0 | 0.0 | 0.0 | 0.00 | 0.00 | 0.00 | 70 | 1004.8 |
| 20260505070518 | 61 | 0 | 0.0 | 0.0 | 0.00 | 0.00 | 0.00 | 68 | 1004.9 |
| 20260505070047 | 60 | 0 | 0.0 | 0.0 | 0.00 | 0.00 | 0.00 | 67 | 1005.0 |
| 20260505065520 | 60 | 0 | 0.0 | 0.0 | 0.00 | 0.00 | 0.00 | 66 | 1005.2 |
| 20260505065018 | 60 | 0 | 0.0 | 0.0 | 0.00 | 0.00 | 0.00 | 66 | 1005.1 |
| 20260505064534 | 60 | 0 | 0.0 | 0.0 | 0.00 | 0.00 | 0.00 | 66 | 1004.9 |
| 20260505064018 | 60 | 0 | 0.0 | 0.0 | 0.00 | 0.00 | 0.00 | 65 | 1004.9 |
| 20260505063518 | 60 | 0 | 0.0 | 0.0 | 0.00 | 0.00 | 0.00 | 66 | 1004.9 |
| 20260505063040 | 61 | 0 | 0.0 | 0.0 | 0.00 | 0.00 | 0.00 | 67 | 1004.9 |
| 20260505062520 | 61 | 0 | 0.0 | 0.0 | 0.00 | 0.00 | 0.00 | 66 | 1004.8 |
| 20260505062020 | 60 | 0 | 0.0 | 0.0 | 0.00 | 0.00 | 0.00 | 66 | 1004.8 |
| 20260505061537 | 61 | 0 | 0.0 | 0.0 | 0.00 | 0.00 | 0.00 | 67 | 1004.8 |
| 20260505061018 | 61 | 0 | 0.0 | 0.0 | 0.00 | 0.00 | 0.00 | 65 | 1004.7 |
| 20260505060518 | 61 | 0 | 0.0 | 0.0 | 0.00 | 0.00 | 0.00 | 64 | 1004.6 |
| 20260505060038 | 61 | 0 | 0.0 | 0.0 | 0.00 | 0.00 | 0.00 | 65 | 1004.5 |
| 20260505055518 | 61 | 0 | 0.0 | 0.0 | 0.00 | 0.00 | 0.00 | 64 | 1004.7 |
| 20260505055018 | 61 | 0 | 0.0 | 0.0 | 0.00 | 0.00 | 0.00 | 62 | 1004.7 |
| 20260505054536 | 61 | 0 | 0.0 | 0.0 | 0.00 | 0.00 | 0.00 | 64 | 1004.7 |
| 20260505054018 | 61 | 0 | 0.0 | 0.0 | 0.00 | 0.00 | 0.00 | 63 | 1004.8 |
| 20260505053517 | 61 | 0 | 0.0 | 0.0 | 0.00 | 0.00 | 0.00 | 64 | 1004.9 |
| 20260505053035 | 61 | 0 | 0.0 | 0.0 | 0.00 | 0.00 | 0.00 | 64 | 1004.9 |
| 20260505052518 | 60 | 0 | 0.0 | 0.0 | 0.00 | 0.00 | 0.00 | 65 | 1004.8 |
| 20260505052017 | 60 | 0 | 0.0 | 0.0 | 0.00 | 0.00 | 0.00 | 66 | 1005.0 |
| 20260505051532 | 60 | 0 | 0.0 | 0.0 | 0.00 | 0.00 | 0.00 | 66 | 1004.9 |
| 20260505051019 | 59 | 0 | 0.0 | 0.0 | 0.00 | 0.00 | 0.00 | 68 | 1005.1 |
| 20260505050518 | 58 | 0 | 0.0 | 0.0 | 0.00 | 0.00 | 0.00 | 68 | 1005.0 |
| 20260505041530 | 57 | 0 | 0.0 | 0.0 | 0.00 | 0.00 | 0.00 | 68 | 1004.8 |
| 20260505041018 | 56 | 0 | 0.0 | 0.0 | 0.00 | 0.00 | 0.00 | 72 | 1004.8 |
| 20260505040518 | 56 | 0 | 0.0 | 0.0 | 0.00 | 0.00 | 0.00 | 71 | 1004.9 |
| 20260505040036 | 56 | 0 | 0.0 | 0.0 | 0.00 | 0.00 | 0.00 | 71 | 1004.9 |
| 20260505035517 | 55 | 0 | 0.0 | 0.0 | 0.00 | 0.00 | 0.00 | 73 | 1004.8 |
| 20260505035018 | 55 | 0 | 0.0 | 0.0 | 0.00 | 0.00 | 0.00 | 74 | 1004.9 |
| 20260505034538 | 55 | 0 | 0.0 | 0.0 | 0.00 | 0.00 | 0.00 | 75 | 1004.9 |
| 20260505034018 | 55 | 0 | 0.0 | 0.0 | 0.00 | 0.00 | 0.00 | 74 | 1004.9 |
| 20260505033519 | 55 | 0 | 0.0 | 0.0 | 0.00 | 0.00 | 0.00 | 75 | 1004.7 |
| 20260505033038 | 55 | 0 | 0.0 | 0.0 | 0.00 | 0.00 | 0.00 | 74 | 1004.6 |
| 20260505032519 | 55 | 0 | 0.0 | 0.0 | 0.00 | 0.00 | 0.00 | 76 | 1004.8 |
| 20260505032017 | 55 | 0 | 0.0 | 0.0 | 0.00 | 0.00 | 0.00 | 76 | 1004.8 |
| 20260505031543 | 55 | 0 | 0.0 | 0.0 | 0.00 | 0.00 | 0.00 | 77 | 1004.8 |
| 20260505031019 | 54 | 0 | 0.0 | 0.0 | 0.00 | 0.00 | 0.00 | 77 | 1004.8 |
| 20260505030519 | 53 | 0 | 0.0 | 0.0 | 0.00 | 0.00 | 0.00 | 81 | 1004.8 |
| 20260505030032 | 53 | 0 | 0.0 | 0.0 | 0.00 | 0.00 | 0.00 | 82 | 1004.9 |
| 20260505025518 | 53 | 0 | 0.0 | 0.0 | 0.00 | 0.01 | 0.00 | 83 | 1004.9 |
| 20260505025018 | 53 | 0 | 0.0 | 0.0 | 0.00 | 0.01 | 0.00 | 83 | 1004.9 |
| 20260505024545 | 53 | 0 | 0.0 | 0.0 | 0.00 | 0.01 | 0.00 | 84 | 1004.9 |
| 20260505024017 | 52 | 0 | 0.0 | 0.0 | 0.00 | 0.01 | 0.00 | 84 | 1004.9 |
| 20260505023518 | 52 | 0 | 0.0 | 0.0 | 0.00 | 0.01 | 0.00 | 85 | 1005.0 |
| 20260505023041 | 52 | 0 | 0.0 | 0.0 | 0.00 | 0.01 | 0.00 | 86 | 1005.0 |
| 20260505022518 | 51 | 0 | 0.0 | 0.0 | 0.00 | 0.01 | 0.00 | 88 | 1005.0 |
| 20260505022018 | 51 | 0 | 0.0 | 0.0 | 0.00 | 0.01 | 0.00 | 88 | 1005.1 |
| 20260505021533 | 51 | 0 | 0.0 | 0.0 | 0.00 | 0.01 | 0.00 | 88 | 1005.2 |
| 20260505021016 | 51 | 0 | 0.0 | 0.0 | 0.00 | 0.01 | 0.00 | 87 | 1005.0 |
| 20260505020518 | 51 | 0 | 0.0 | 0.0 | 0.00 | 0.01 | 0.00 | 87 | 1005.1 |
| 20260505020032 | 51 | 0 | 0.0 | 0.0 | 0.00 | 0.01 | 0.00 | 87 | 1005.1 |
| 20260505015518 | 51 | 0 | 0.0 | 0.0 | 0.00 | 0.01 | 0.00 | 87 | 1005.1 |
| 20260505015018 | 51 | 0 | 0.0 | 0.0 | 0.00 | 0.01 | 0.00 | 87 | 1005.2 |
| 20260505014559 | 51 | 0 | 0.0 | 0.0 | 0.00 | 0.01 | 0.00 | 85 | 1005.2 |
| 20260505014018 | 51 | 0 | 0.0 | 0.0 | 0.00 | 0.01 | 0.00 | 85 | 1005.1 |
| 20260505013517 | 51 | 0 | 0.0 | 0.0 | 0.00 | 0.01 | 0.00 | 85 | 1005.1 |
| 20260505013029 | 51 | 0 | 0.0 | 0.0 | 0.00 | 0.01 | 0.00 | 85 | 1005.1 |
| 20260505012517 | 51 | 0 | 0.0 | 0.0 | 0.00 | 0.01 | 0.00 | 84 | 1005.2 |
| 20260505012017 | 52 | 0 | 0.0 | 0.0 | 0.00 | 0.01 | 0.00 | 85 | 1005.2 |
| 20260505011536 | 52 | 0 | 0.0 | 0.0 | 0.00 | 0.01 | 0.00 | 85 | 1005.3 |
| 20260505011017 | 52 | 0 | 0.0 | 0.0 | 0.00 | 0.01 | 0.00 | 84 | 1005.1 |
| 20260505010518 | 52 | 0 | 0.0 | 0.0 | 0.00 | 0.01 | 0.00 | 82 | 1005.1 |
| 20260505010033 | 53 | 0 | 0.0 | 0.0 | 0.00 | 0.01 | 0.00 | 82 | 1005.1 |
| 20260505005518 | 53 | 0 | 0.0 | 0.0 | 0.00 | 0.01 | 0.00 | 82 | 1005.0 |
| 20260505005017 | 54 | 0 | 0.0 | 0.0 | 0.00 | 0.01 | 0.00 | 81 | 1005.0 |
| 20260505004530 | 54 | 0 | 0.0 | 0.0 | 0.00 | 0.01 | 0.00 | 82 | 1004.9 |
| 20260505004017 | 54 | 0 | 0.0 | 0.0 | 0.00 | 0.01 | 0.00 | 81 | 1004.8 |
| 20260505003517 | 55 | 0 | 0.0 | 0.0 | 0.00 | 0.01 | 0.00 | 78 | 1004.8 |
| 20260505003032 | 56 | 0 | 0.0 | 0.0 | 0.00 | 0.01 | 0.00 | 77 | 1004.8 |
| 20260505002517 | 56 | 0 | 0.0 | 0.0 | 0.00 | 0.01 | 0.00 | 76 | 1004.7 |
| 20260505002017 | 57 | 0 | 0.0 | 0.0 | 0.00 | 0.01 | 0.00 | 76 | 1004.7 |
| 20260505001534 | 58 | 0 | 0.0 | 0.0 | 0.00 | 0.01 | 0.00 | 76 | 1004.7 |
| 20260505001017 | 59 | 0 | 0.0 | 0.0 | 0.00 | 0.01 | 0.00 | 72 | 1004.6 |
| 20260505000517 | 59 | 0 | 0.0 | 0.0 | 0.00 | 0.01 | 0.00 | 68 | 1004.6 |
| 20260505000035 | 60 | 0 | 0.0 | 0.0 | 0.00 | 0.01 | 0.00 | 68 | 1004.5 |
| 20260504235517 | 62 | 0 | 0.0 | 0.0 | 0.00 | 0.01 | 0.00 | 64 | 1004.5 |
| 20260504235017 | 63 | 0 | 0.0 | 0.0 | 0.00 | 0.01 | 0.00 | 63 | 1004.4 |
| 20260504234533 | 65 | 0 | 0.0 | 0.0 | 0.00 | 0.01 | 0.00 | 59 | 1004.4 |
| 20260504234018 | 66 | 0 | 0.0 | 0.0 | 0.00 | 0.01 | 0.00 | 57 | 1004.2 |
| 20260504233518 | 67 | 0 | 0.0 | 0.0 | 0.00 | 0.01 | 0.00 | 54 | 1004.3 |
| 20260504233032 | 68 | 0 | 0.0 | 0.0 | 0.00 | 0.01 | 0.00 | 52 | 1004.3 |
| 20260504232518 | 68 | 0 | 0.0 | 0.0 | 0.00 | 0.01 | 0.00 | 54 | 1004.2 |
| 20260504232017 | 69 | 0 | 0.0 | 0.0 | 0.00 | 0.01 | 0.00 | 46 | 1004.4 |
| 20260504231532 | 69 | 0 | 0.0 | 0.0 | 0.00 | 0.01 | 0.00 | 46 | 1004.3 |
| 20260504231017 | 70 | 0 | 0.0 | 0.0 | 0.00 | 0.01 | 0.00 | 44 | 1004.4 |
| 20260504230517 | 70 | 0 | 0.0 | 0.0 | 0.00 | 0.01 | 0.00 | 45 | 1004.4 |
| 20260504230030 | 71 | 0 | 0.0 | 0.0 | 0.00 | 0.01 | 0.00 | 43 | 1004.4 |
| 20260504225518 | 71 | 0 | 0.0 | 0.0 | 0.00 | 0.01 | 0.00 | 40 | 1004.3 |
| 20260504225017 | 72 | 0 | 0.0 | 0.0 | 0.00 | 0.01 | 0.00 | 40 | 1004.4 |
| 20260504224536 | 72 | 0 | 0.0 | 0.0 | 0.00 | 0.01 | 0.00 | 38 | 1004.4 |
| 20260504224017 | 72 | 0 | 0.0 | 0.0 | 0.00 | 0.01 | 0.00 | 38 | 1004.4 |
| 20260504223518 | 72 | 0 | 0.0 | 0.0 | 0.00 | 0.01 | 0.00 | 38 | 1004.4 |
| 20260504223034 | 72 | 0 | 0.0 | 0.0 | 0.00 | 0.01 | 0.00 | 40 | 1004.5 |
| 20260504222517 | 73 | 0 | 0.0 | 0.0 | 0.00 | 0.01 | 0.00 | 42 | 1004.3 |
| 20260504222019 | 72 | 0 | 0.0 | 0.0 | 0.00 | 0.01 | 0.00 | 40 | 1004.3 |
| 20260504221532 | 73 | 0 | 0.0 | 0.0 | 0.00 | 0.01 | 0.00 | 38 | 1004.2 |
| 20260504221019 | 73 | 0 | 0.0 | 0.0 | 0.00 | 0.01 | 0.00 | 39 | 1004.4 |
| 20260504220521 | 72 | 0 | 0.0 | 0.0 | 0.00 | 0.01 | 0.00 | 41 | 1004.3 |
| 20260504220033 | 71 | 0 | 0.0 | 0.0 | 0.00 | 0.01 | 0.00 | 41 | 1004.3 |
| 20260504215518 | 70 | 0 | 0.0 | 0.0 | 0.00 | 0.01 | 0.00 | 44 | 1004.5 |
| 20260504215017 | 71 | 0 | 0.0 | 0.0 | 0.00 | 0.01 | 0.00 | 44 | 1004.5 |
| 20260504214532 | 71 | 0 | 0.0 | 0.0 | 0.00 | 0.01 | 0.00 | 45 | 1004.5 |
| 20260504214017 | 70 | 0 | 0.0 | 0.0 | 0.00 | 0.01 | 0.00 | 43 | 1004.5 |
| 20260504213517 | 70 | 0 | 0.0 | 0.0 | 0.00 | 0.01 | 0.00 | 45 | 1004.5 |
| 20260504213035 | 69 | 0 | 0.0 | 0.0 | 0.00 | 0.01 | 0.00 | 45 | 1004.4 |
| 20260504212517 | 70 | 0 | 0.0 | 0.0 | 0.00 | 0.01 | 0.00 | 51 | 1004.4 |
| 20260504212022 | 70 | 0 | 0.0 | 0.0 | 0.00 | 0.01 | 0.00 | 46 | 1004.4 |
| 20260504211535 | 70 | 0 | 0.0 | 0.0 | 0.00 | 0.01 | 0.00 | 46 | 1004.4 |
| 20260504211017 | 70 | 0 | 0.0 | 0.0 | 0.00 | 0.01 | 0.00 | 42 | 1004.4 |
| 20260504210517 | 70 | 0 | 0.0 | 0.0 | 0.00 | 0.01 | 0.00 | 44 | 1004.5 |
| 20260504210044 | 71 | 0 | 0.0 | 0.0 | 0.00 | 0.01 | 0.00 | 45 | 1004.5 |
| 20260504205518 | 71 | 0 | 0.0 | 0.0 | 0.00 | 0.01 | 0.00 | 46 | 1004.6 |
| 20260504205020 | 71 | 0 | 0.0 | 0.0 | 0.00 | 0.01 | 0.00 | 43 | 1004.6 |
| 20260504204546 | 70 | 0 | 0.0 | 0.0 | 0.00 | 0.01 | 0.00 | 44 | 1004.7 |
| 20260504204017 | 70 | 0 | 0.0 | 0.0 | 0.00 | 0.01 | 0.00 | 45 | 1004.8 |
| 20260504203517 | 70 | 0 | 0.0 | 0.0 | 0.00 | 0.01 | 0.00 | 47 | 1004.9 |
| 20260504203031 | 70 | 0 | 0.0 | 0.0 | 0.00 | 0.01 | 0.00 | 42 | 1004.9 |
| 20260504202518 | 71 | 0 | 0.0 | 0.0 | 0.00 | 0.01 | 0.00 | 45 | 1004.9 |
| 20260504202017 | 71 | 0 | 0.0 | 0.0 | 0.00 | 0.01 | 0.00 | 41 | 1004.9 |
| 20260504201539 | 72 | 0 | 0.0 | 0.0 | 0.00 | 0.01 | 0.00 | 42 | 1005.0 |
| 20260504201017 | 72 | 0 | 0.0 | 0.0 | 0.00 | 0.01 | 0.00 | 46 | 1005.1 |
| 20260504200517 | 72 | 0 | 0.0 | 0.0 | 0.00 | 0.01 | 0.00 | 43 | 1005.2 |
| 20260504200029 | 72 | 0 | 0.0 | 0.0 | 0.00 | 0.01 | 0.00 | 47 | 1005.1 |
| 20260504195517 | 71 | 0 | 0.0 | 0.0 | 0.00 | 0.01 | 0.00 | 49 | 1005.2 |
| 20260504195017 | 71 | 0 | 0.0 | 0.0 | 0.00 | 0.01 | 0.00 | 48 | 1005.3 |
| 20260504194532 | 72 | 0 | 0.0 | 0.0 | 0.00 | 0.01 | 0.00 | 44 | 1005.3 |
| 20260504194014 | 72 | 0 | 0.0 | 0.0 | 0.00 | 0.01 | 0.00 | 43 | 1005.3 |
| 20260504193519 | 72 | 0 | 0.0 | 0.0 | 0.00 | 0.01 | 0.00 | 47 | 1005.3 |
| 20260504193032 | 72 | 0 | 0.0 | 0.0 | 0.00 | 0.01 | 0.00 | 49 | 1005.5 |
| 20260504192517 | 72 | 0 | 0.0 | 0.0 | 0.00 | 0.01 | 0.00 | 45 | 1005.6 |
| 20260504192017 | 72 | 0 | 0.0 | 0.0 | 0.00 | 0.01 | 0.00 | 47 | 1005.6 |
| 20260504191531 | 71 | 0 | 0.0 | 0.0 | 0.00 | 0.01 | 0.00 | 44 | 1005.6 |
| 20260504191019 | 70 | 0 | 0.0 | 0.0 | 0.00 | 0.01 | 0.00 | 48 | 1005.9 |
| 20260504190517 | 70 | 0 | 0.0 | 0.0 | 0.00 | 0.01 | 0.00 | 44 | 1005.9 |
| 20260504190031 | 71 | 0 | 0.0 | 0.0 | 0.00 | 0.01 | 0.00 | 43 | 1005.9 |
| 20260504185517 | 73 | 0 | 0.0 | 0.0 | 0.00 | 0.01 | 0.00 | 48 | 1006.0 |
| 20260504185018 | 72 | 0 | 0.0 | 0.0 | 0.00 | 0.01 | 0.00 | 45 | 1005.9 |
| 20260504184556 | 72 | 0 | 0.0 | 0.0 | 0.00 | 0.01 | 0.00 | 48 | 1006.0 |
| 20260504184019 | 72 | 0 | 0.0 | 0.0 | 0.00 | 0.01 | 0.00 | 48 | 1005.9 |
| 20260504183517 | 71 | 0 | 0.0 | 0.0 | 0.00 | 0.01 | 0.00 | 47 | 1005.9 |
| 20260504183033 | 70 | 0 | 0.0 | 0.0 | 0.00 | 0.01 | 0.00 | 47 | 1006.0 |
| 20260504182518 | 69 | 0 | 0.0 | 0.0 | 0.00 | 0.01 | 0.00 | 47 | 1006.1 |
| 20260504182015 | 70 | 0 | 0.0 | 0.0 | 0.00 | 0.01 | 0.00 | 49 | 1006.1 |
| 20260504181530 | 69 | 0 | 0.0 | 0.0 | 0.00 | 0.01 | 0.00 | 46 | 1006.1 |
| 20260504181020 | 68 | 0 | 0.0 | 0.0 | 0.00 | 0.01 | 0.00 | 48 | 1006.1 |
| 20260504180518 | 69 | 0 | 0.0 | 0.0 | 0.00 | 0.01 | 0.00 | 46 | 1006.1 |
| 20260504180032 | 70 | 0 | 0.0 | 0.0 | 0.00 | 0.01 | 0.00 | 51 | 1006.1 |
| 20260504175517 | 70 | 0 | 0.0 | 0.0 | 0.00 | 0.01 | 0.00 | 49 | 1006.1 |
| 20260504175017 | 70 | 0 | 0.0 | 0.0 | 0.00 | 0.01 | 0.00 | 46 | 1006.1 |
| 20260504174530 | 69 | 0 | 0.0 | 0.0 | 0.00 | 0.01 | 0.00 | 50 | 1006.1 |
| 20260504174017 | 67 | 0 | 0.0 | 0.0 | 0.00 | 0.01 | 0.00 | 52 | 1006.1 |
| 20260504173516 | 68 | 0 | 0.0 | 0.0 | 0.00 | 0.01 | 0.00 | 47 | 1006.2 |